Regional Weather Roundup
Issued by NWS Midland/Odessa, TX

Skip options and go directly to product.
Home | Oldest Version | Previous Version | Current Version | All | Text Only | Save Text | Print | Product List | Glossary Off

Skip product version selection by date and time.   

032
ASUS44 KMAF 251910
RWRMAF
MIDLAND AREA WEATHER ROUNDUP
NATIONAL WEATHER SERVICE MIDLAND TX
200 PM CDT SUN SEP 25 2016

...IN SOUTHWEST TEXAS AND SOUTHEAST NEW MEXICO...

CITY           SKY/WX    TMP DP  RH WIND       PRES   REMARKS
ALPINE         CLOUDY    65  57  75 N5        30.24S
ANDREWS        CLOUDY    70  61  72 E12       30.18S
ARTESIA        CLOUDY    70  52  52 N15G25    30.23F
BIG SPRING     CLOUDY    73  65  78 NE13      30.16F
CARLSBAD       CLOUDY    71  50  47 NW21      30.18F
DRYDEN           N/A     71  67  87 NE14      30.06F
FORT STOCKTON  CLOUDY    72  63  73 NE8       30.12F
GUAD PASS      CLOUDY    66  47  50 NE28G35   30.24R
HOBBS          PTSUNNY   68  59  73 N23G31    30.22S
MARFA          CLOUDY   N/A N/A N/A N12       30.22R
MIDLAND AIRPK  CLOUDY    71  63  75 NE12      30.14F
MIDLAND INTL   CLOUDY    70  62  76 NE9       30.13F
ODESSA         CLOUDY    73  60  63 E10       30.14F
PECOS          CLOUDY    73  56  55 NW10      30.12F
PRESIDIO       NOT AVBL
SEMINOLE       LGT RAIN  63  61  93 NE14G25   30.21R
SNYDER           N/A     69  64  85 CALM      30.16S
WINK           CLOUDY    68  62  81 N7        30.11S
$$
...OTHER STATIONS IN TEXAS...

CITY           SKY/WX    TMP DP  RH WIND       PRES   REMARKS
ABILENE        LGT RAIN  69  68  96 N8        30.13S FOG
AMARILLO       SUNNY     71  41  33 NE25G33   30.30S
AUSTIN         CLOUDY    83  75  77 NE8       29.96F THUNDER
BROWNSVILLE    MOSUNNY   94  72  48 SE21G26   29.89F HX 102
CORPUS CHRISTI CLOUDY    88  75  65 S14       29.91F
DALLAS FTW     CLOUDY    77  71  82 NW6       30.02S
DEL RIO        LGT RAIN  71  70  96 CALM      29.99S
EL PASO        PTSUNNY   78  35  21 NE17G25   30.16R
HOUSTON INT    PTSUNNY   89  74  60 S10       29.96F
LUBBOCK        CLOUDY    64  47  53 NE24G33   30.22R
SAN ANGELO     RAIN      68  66  93 E3        30.12S FOG
SAN ANTONIO    CLOUDY    83  72  69 N7        29.95F
WACO           CLOUDY    77  74  90 N8        30.02S
WICHITA FALLS  NOT AVBL
$$
...OTHER LOCATIONS IN NEW MEXICO...

CITY           SKY/WX    TMP DP  RH WIND       PRES   REMARKS
ALAMAGORDO     CLOUDY    72  34  25 S5        30.18F
ALBUQUERQUE    MOSUNNY   71  36  27 E24G33    30.32F
CANNON AFB     CLOUDY    66  41  39 NE26G33   30.30S
CLOVIS         CLOUDY    70  43  37 NE29G36   30.31S
HOLLOMAN AFB   PTSUNNY   73  35  24 SE5       30.16R
ROSWELL        CLOUDY    74  46  36 NE20G29   30.25R
RUIDOSO        CLOUDY    63  37  39 E13       30.39S
SANTA FE       SUNNY     66  32  28 CALM      30.37F
TRUTH OR CONSE MOSUNNY   74  34  23 NE25G31   30.23F
TUCUMCARI      MOSUNNY   74  37  26 NE18G33   30.32F
$$

USA.gov is the U.S. government's official web portal to all federal, state and local government web resources and services.